Hourly Weather Abohar

Today, 22 January, Friday

Time Temperature Precipitation Wind Pressure Humidity
00:00 +15°C° 0 mm 2 mps 742 mmHg 20%
01:00 +14°C° 0 mm 2 mps 743 mmHg 21%
02:00 +14°C° 0 mm 2 mps 743 mmHg 22%
03:00 +14°C° 0 mm 2 mps 742 mmHg 23%
04:00 +13°C° 0 mm 2 mps 742 mmHg 24%
05:00 +12°C° 0 mm 2 mps 742 mmHg 25%
06:00 +13°C° 0 mm 2 mps 742 mmHg 25%
07:00 +12°C° 0 mm 3 mps 742 mmHg 25%
08:00 +13°C° 0 mm 3 mps 743 mmHg 25%
09:00 +17°C° 0 mm 3 mps 743 mmHg 21%
10:00 +21°C° 0 mm 3 mps 743 mmHg 17%
11:00 +26°C° 0 mm 3 mps 743 mmHg 13%
12:00 +27°C° 0 mm 3 mps 742 mmHg 13%
13:00 +28°C° 0 mm 3 mps 742 mmHg 12%
14:00 +29°C° 0 mm 3 mps 741 mmHg 11%
15:00 +28°C° 0 mm 3 mps 740 mmHg 13%
16:00 +27°C° 0 mm 3 mps 740 mmHg 14%
17:00 +26°C° 0 mm 3 mps 739 mmHg 15%
18:00 +24°C° 0 mm 3 mps 740 mmHg 17%
19:00 +21°C° 0 mm 3 mps 740 mmHg 19%
20:00 +20°C° 0 mm 4 mps 740 mmHg 21%
21:00 +19°C° 0 mm 4 mps 740 mmHg 24%
22:00 +18°C° 0 mm 4 mps 740 mmHg 27%
23:00 +17°C° 0 mm 5 mps 740 mmHg 29%

Tomorrow, 23 January, Saturday

Time Temperature Precipitation Wind Pressure Humidity
00:00 +17°C° 0 mm 5 mps 739 mmHg 31%
01:00 +17°C° 0 mm 5 mps 739 mmHg 33%
02:00 +17°C° 0 mm 5 mps 739 mmHg 35%
03:00 +16°C° 0 mm 5 mps 738 mmHg 37%
04:00 +16°C° 0 mm 5 mps 738 mmHg 38%
05:00 +15°C° 0 mm 5 mps 738 mmHg 40%
06:00 +15°C° 0 mm 5 mps 738 mmHg 40%
07:00 +15°C° 0 mm 4 mps 739 mmHg 40%
08:00 +16°C° 0 mm 3 mps 739 mmHg 41%
09:00 +18°C° 0 mm 3 mps 739 mmHg 37%
10:00 +20°C° 0 mm 3 mps 740 mmHg 33%
11:00 +22°C° 0 mm 3 mps 740 mmHg 29%
12:00 +23°C° 0 mm 4 mps 739 mmHg 24%
13:00 +25°C° 0 mm 4 mps 739 mmHg 18%
14:00 +26°C° 0 mm 5 mps 738 mmHg 13%
15:00 +25°C° 0 mm 4 mps 738 mmHg 15%
16:00 +22°C° 0 mm 4 mps 738 mmHg 17%
17:00 +21°C° 0 mm 4 mps 738 mmHg 20%
18:00 +19°C° 0 mm 4 mps 739 mmHg 25%
19:00 +17°C° 0 mm 3 mps 740 mmHg 30%
20:00 +13°C° 0 mm 3 mps 741 mmHg 36%
21:00 +13°C° 0 mm 3 mps 741 mmHg 38%
22:00 +13°C° 0 mm 2 mps 742 mmHg 41%
23:00 +12°C° 0 mm 2 mps 742 mmHg 44%

Day after tomorrow, 24 January, Sunday

Time Temperature Precipitation Wind Pressure Humidity
00:00 +10°C° 0 mm 2 mps 742 mmHg 47%
01:00 +9°C° 0 mm 2 mps 742 mmHg 51%
02:00 +9°C° 0 mm 2 mps 742 mmHg 54%
03:00 +8°C° 0 mm 2 mps 742 mmHg 59%
04:00 +8°C° 0 mm 2 mps 742 mmHg 63%
05:00 +8°C° 0 mm 2 mps 742 mmHg 68%
06:00 +8°C° 0 mm 2 mps 743 mmHg 65%
07:00 +9°C° 0 mm 2 mps 743 mmHg 62%
08:00 +9°C° 0 mm 2 mps 744 mmHg 59%
09:00 +13°C° 0 mm 2 mps 744 mmHg 51%
10:00 +16°C° 0 mm 2 mps 745 mmHg 43%
11:00 +19°C° 0 mm 3 mps 745 mmHg 34%
12:00 +20°C° 0 mm 3 mps 745 mmHg 30%
13:00 +21°C° 0 mm 4 mps 744 mmHg 26%
14:00 +22°C° 0 mm 4 mps 744 mmHg 22%
15:00 +21°C° 0 mm 4 mps 744 mmHg 23%
16:00 +20°C° 0 mm 3 mps 744 mmHg 24%
17:00 +19°C° 0 mm 3 mps 743 mmHg 25%
18:00 +17°C° 0 mm 2 mps 744 mmHg 31%
19:00 +15°C° 0 mm 2 mps 744 mmHg 37%
20:00 +13°C° 0 mm 2 mps 745 mmHg 43%
21:00 +13°C° 0 mm 2 mps 745 mmHg 47%
22:00 +12°C° 0 mm 2 mps 745 mmHg 50%
23:00 +10°C° 0 mm 2 mps 745 mmHg 53%

25 January, Monday

Time Temperature Precipitation Wind Pressure Humidity
00:00 +10°C° 0 mm 2 mps 745 mmHg 55%
01:00 +9°C° 0 mm 2 mps 745 mmHg 57%
02:00 +9°C° 0 mm 2 mps 745 mmHg 59%
03:00 +9°C° 0 mm 2 mps 744 mmHg 61%
04:00 +8°C° 0 mm 2 mps 744 mmHg 62%
05:00 +8°C° 0 mm 2 mps 744 mmHg 64%
06:00 +9°C° 0 mm 2 mps 744 mmHg 56%
07:00 +9°C° 0 mm 2 mps 745 mmHg 48%
08:00 +9°C° 0 mm 2 mps 745 mmHg 41%
09:00 +14°C° 0 mm 2 mps 746 mmHg 33%
10:00 +17°C° 0 mm 3 mps 746 mmHg 25%
11:00 +20°C° 0 mm 3 mps 746 mmHg 17%
12:00 +21°C° 0 mm 3 mps 745 mmHg 17%
13:00 +22°C° 0 mm 3 mps 745 mmHg 16%
14:00 +24°C° 0 mm 3 mps 744 mmHg 16%
15:00 +22°C° 0 mm 3 mps 744 mmHg 17%
16:00 +21°C° 0 mm 2 mps 744 mmHg 18%
17:00 +20°C° 0 mm 2 mps 743 mmHg 19%
18:00 +18°C° 0 mm 2 mps 744 mmHg 22%
19:00 +16°C° 0 mm 2 mps 744 mmHg 26%
20:00 +14°C° 0 mm 2 mps 744 mmHg 30%
21:00 +14°C° 0 mm 1 mps 744 mmHg 34%
22:00 +13°C° 0 mm 1 mps 744 mmHg 38%
23:00 +12°C° 0 mm 1 mps 744 mmHg 42%

26 January, Tuesday

Time Temperature Precipitation Wind Pressure Humidity
00:00 +12°C° 0 mm 1 mps 744 mmHg 45%
01:00 +12°C° 0 mm 1 mps 744 mmHg 47%
02:00 +11°C° 0 mm 1 mps 744 mmHg 50%
03:00 +11°C° 0 mm 1 mps 743 mmHg 52%
04:00 +10°C° 0 mm 1 mps 743 mmHg 54%
05:00 +10°C° 0 mm 1 mps 743 mmHg 56%
06:00 +10°C° 0 mm 1 mps 744 mmHg 53%
07:00 +11°C° 0 mm 1 mps 744 mmHg 50%
08:00 +12°C° 0 mm 1 mps 745 mmHg 46%
09:00 +15°C° 0 mm 1 mps 745 mmHg 37%
10:00 +18°C° 0 mm 2 mps 745 mmHg 28%
11:00 +21°C° 0 mm 2 mps 745 mmHg 19%
12:00 +22°C° 0 mm 3 mps 745 mmHg 17%
13:00 +24°C° 0 mm 3 mps 744 mmHg 15%
14:00 +25°C° 0 mm 4 mps 743 mmHg 14%
15:00 +24°C° 0 mm 3 mps 743 mmHg 15%
16:00 +22°C° 0 mm 3 mps 743 mmHg 17%
17:00 +21°C° 0 mm 2 mps 743 mmHg 18%
18:00 +19°C° 0 mm 2 mps 743 mmHg 22%
19:00 +16°C° 0 mm 2 mps 743 mmHg 26%
20:00 +14°C° 0 mm 1 mps 743 mmHg 30%
21:00 +14°C° 0 mm 1 mps 744 mmHg 33%
22:00 +13°C° 0 mm 1 mps 744 mmHg 35%
23:00 +11°C° 0 mm 0 mps 744 mmHg 38%

27 January, Wednesday

Time Temperature Precipitation Wind Pressure Humidity
00:00 +11°C° 0 mm 0 mps 744 mmHg 38%
01:00 +10°C° 0 mm 0 mps 743 mmHg 39%
02:00 +10°C° 0 mm 0 mps 743 mmHg 40%
03:00 +9°C° 0 mm 0 mps 743 mmHg 41%
04:00 +9°C° 0 mm 0 mps 743 mmHg 42%
05:00 +8°C° 0 mm 0 mps 743 mmHg 44%
06:00 +9°C° 0 mm 0 mps 743 mmHg 41%
07:00 +10°C° 0 mm 0 mps 744 mmHg 39%
08:00 +12°C° 0 mm 1 mps 744 mmHg 37%
09:00 +15°C° 0 mm 1 mps 745 mmHg 30%
10:00 +19°C° 0 mm 1 mps 745 mmHg 24%
11:00 +22°C° 0 mm 1 mps 745 mmHg 18%
12:00 +23°C° 0 mm 1 mps 744 mmHg 17%
13:00 +24°C° 0 mm 2 mps 744 mmHg 15%
14:00 +25°C° 0 mm 2 mps 743 mmHg 14%
15:00 +24°C° 0 mm 2 mps 743 mmHg 15%
16:00 +23°C° 0 mm 2 mps 743 mmHg 17%
17:00 +21°C° 0 mm 2 mps 742 mmHg 18%
18:00 +19°C° 0 mm 2 mps 743 mmHg 23%
19:00 +17°C° 0 mm 2 mps 743 mmHg 27%
20:00 +15°C° 0 mm 1 mps 744 mmHg 31%
21:00 +14°C° 0 mm 1 mps 744 mmHg 34%
22:00 +13°C° 0 mm 1 mps 744 mmHg 36%
23:00 +13°C° 0 mm 1 mps 744 mmHg 38%
Show more